Queralbs





Hora UTC 02:50
Temperatura 16.1 ºC
Humedad 25.0 %
Presión 1005.4 hPa
Pluja 0.0 mm
Velocidad viento 0.0 km/h
Dirección viento NW
Radiación solar 0.0 W/m²

Datos diarios 2022-05-23



Hora UTC (invierno +1h; verano +2h)
Temperatura (ºC) Humedad (%) Presión (hPa) Velocidad viento (km/h) Precipitación (mm) Radiación solar (W/m²)
Hora UTC Aire Humedad Presión Vel. Dir. Vel. Max Dir. Intent. máx 5 min. Rad. Sol.
00:05 16.3 23.0 1007.1 0.0 WSW 0.0 0.0 0.0
00:10 16.2 21.0 1007.0 0.0 WSW 4.8 0.0 0.0
00:15 16.1 23.0 1006.8 0.0 WSW 4.8 0.0 0.0
00:20 15.8 23.0 1006.9 1.6 WSW 4.8 0.0 0.0
00:25 15.5 26.0 1007.3 3.2 WSW 3.2 0.0 0.0
00:30 15.3 24.0 1007.2 1.6 WSW 3.2 0.0 0.0
00:35 15.3 26.0 1007.4 1.6 WSW 3.2 0.0 0.0
00:40 15.3 24.0 1007.2 0.0 WSW 3.2 0.0 0.0
00:45 15.2 25.0 1007.0 1.6 WSW 6.4 0.0 0.0
00:50 15.1 24.0 1006.9 0.0 WSW 6.4 0.0 0.0
00:55 15.1 25.0 1006.8 3.2 WSW 6.4 0.0 0.0
01:00 15.2 26.0 1006.8 3.2 WSW 6.4 0.0 0.0
01:05 15.4 23.0 1006.7 4.8 WSW 4.8 0.0 0.0
01:10 15.8 24.0 1006.7 0.0 WSW 6.4 0.0 0.0
01:15 15.8 21.0 1006.6 4.8 WSW 4.8 0.0 0.0
01:20 15.9 22.0 1006.5 1.6 WSW 4.8 0.0 0.0
01:25 15.6 22.0 1006.5 3.2 WSW 4.8 0.0 0.0
01:30 15.8 21.0 1006.2 1.6 NW 12.9 0.0 0.0
01:35 15.8 23.0 1006.3 3.2 NW 12.9 0.0 0.0
01:40 15.9 21.0 1006.3 4.8 W 11.3 0.0 0.0
01:45 16.0 20.0 1006.4 1.6 W 11.3 0.0 0.0
01:50 15.9 22.0 1006.3 4.8 NNE 11.3 0.0 0.0
01:55 16.1 21.0 1006.1 8.0 NW 9.7 0.0 0.0
02:00 15.9 21.0 1006.0 1.6 NW 8.0 0.0 0.0
02:05 15.6 22.0 1006.0 4.8 NW 8.0 0.0 0.0
02:10 15.8 21.0 1006.0 0.0 NW 8.0 0.0 0.0
02:15 15.8 23.0 1006.0 0.0 NW 3.2 0.0 0.0
02:20 15.8 21.0 1005.9 1.6 NW 3.2 0.0 0.0
02:25 15.8 22.0 1005.9 1.6 NW 3.2 0.0 0.0
02:30 15.9 21.0 1005.8 0.0 NW 3.2 0.0 0.0
02:35 15.9 24.0 1005.7 0.0 NW 1.6 0.0 0.0
02:40 15.8 22.0 1005.5 0.0 NW 3.2 0.0 0.0
02:45 15.8 25.0 1005.5 1.6 NW 3.2 0.0 0.0
02:50 16.1 25.0 1005.4 0.0 NW 3.2 0.0 0.0
Máxima 16.3 26.0 1007.4 8.0 NW 12.9 0.0 0.0
Mínima 15.1 20.0 1005.4
Total 0.0